Weather in Port Harcourt

Nigeria     4°47′19″N   7°03′10″E
temp.,
°C
wind,
m/s
gust,
m/s
humid.,
%
clouds,
%
prec.,
mm/h
press.,
hPa
HPBL,
m
6 may, thu
thu601:00+26sw389089 0.8 1010297
04:00+25wsw2591100 3.5 1010128
07:00+25sw2589100 3.8 1012202
10:00+29sw4570100 0.6 10131060
13:00+29ssw5667100 1.1 10111169
16:00+29ssw6666100 0.1 10101172
19:00+26ssw368199 0.1 1011438
22:00+25ssw1283100 0.0 101354
7 may, fri
fri701:00+24wnw1184100 0.0 101327
04:00+25sw1284100 0.0 101268
07:00+25sw1283100 0.0 101382
10:00+27se1275100 0.0 1015290
13:00+30sse3362100 0.1 10131251
16:00+30s446442 0.5 10111105
19:00+27s368047 1.0 1012190
22:00+25sw248891 0.0 1013128
8 may, sat
sat801:00+25wsw23908 0.0 101396
04:00+25w118994 0.1 101217
07:00+25wsw1185100 0.1 101347
10:00+29sse126799 0.0 1015696
13:00+30s2359100 0.4 10131281
16:00+29ssw4667100 0.1 1011672
19:00+26sw478163 0.1 1013465
22:00+25sw268799 0.0 1014229
9 may, sun
sun901:00+24wnw228832 0.0 101360
04:00+24wnw2288100 0.0 101238
07:00+25nw1187100 0.0 101365
10:00+27se0073100 0.0 1015664
13:00+31s3356100 0.0 10121371
16:00+32s4451100 0.0 10101537
19:00+26s477797 0.5 1011330
22:00+26ssw118492 0.1 101327
10 may, mon
mon1001:00+25wsw1189100 1.1 101217
04:00+25wnw1190100 0.5 101216
07:00+25nne1292100 5.4 101368
10:00+30e0068100 1.8 1015744
13:00+31se226089 3.0 10121262
16:00+31sse326058 0.6 10101098
19:00+27sw367646 0.9 1011251
22:00+26ssw378359 0.0 1012272